Powrót do katalogu

DELTA 1 DEB

AktywnyUNKNOWN
NORAD 7194·DEBRIS·🇺🇸 United States

Wystrzelony Nov 6, 1973 z Vandenberg Space Force Base

Loading…

Następne Przeloty (najbliższe 24 godziny)

TLE

ŚwieżeSource: Space-Track

Epoka: Sep 14, 2026, 08:11 UTC

1 07194U 73086FC  26257.34110830  .00000158  00000-0  30914-2 0  9990
2 07194 102.6747 291.1799 0538667  22.7160 351.0882 11.49965244214112

Śledź DELTA 1 DEB w czasie rzeczywistym z AllMySat

Download on the App Store